Gold Coast Seaway Observation History
Time Wind Speed Temp Pressure Rel. Hum Rain
18/03:00am SW 3-6 kts 17.1°c 1016.7 hPa 79% 3.4mm
18/02:30am SSW 5-11 kts 17.2°c 1016.8 hPa 79% 3.4mm
18/02:00am SSW 5-8 kts 17.1°c 1017.1 hPa 78% 3.4mm
18/01:30am SSW 6-9 kts 17.1°c 1017.3 hPa 79% 3.4mm
18/01:00am SSW 5-7 kts 17.2°c 1017.7 hPa 79% 3.4mm
18/12:30am SW 6-8 kts 17.2°c 1017.8 hPa 80% 3.4mm
18/12:00am SSW 6-10 kts 17.2°c 1018.0 hPa 80% 3.4mm
Time Wind Speed Temp Pressure Rel. Hum Rain
17/11:30pm SSW 8-12 kts 17.1°c 1017.9 hPa 81% 3.4mm
17/11:00pm SSW 9-14 kts 17.1°c 1018.0 hPa 82% 3.4mm
17/10:30pm S 10-16 kts 16.6°c 1018.3 hPa 83% 3.4mm
17/10:00pm S 10-16 kts 16.4°c 1018.4 hPa 85% 3.4mm
17/09:30pm S 8-12 kts 16.3°c 1018.8 hPa 87% 3.4mm
17/09:00pm S 9-13 kts 16.3°c 1019.2 hPa 87% 2.8mm
17/08:30pm S 11-17 kts 16.8°c 1019.2 hPa 85% 1.2mm
17/08:00pm S 11-17 kts 19.8°c 1018.4 hPa 78% 0.0mm
17/07:30pm SSE 12-16 kts 20.2°c 1018.0 hPa 79% 0.0mm
17/07:00pm S 10-13 kts 20.4°c 1017.9 hPa 76% 0.0mm
17/06:30pm S 9-14 kts 20.4°c 1017.4 hPa 78% 0.0mm
17/06:00pm S 10-16 kts 20.7°c 1017.1 hPa 79% 0.0mm
17/05:30pm SE 12-16 kts 21.2°c 1016.6 hPa 81% 0.0mm
17/05:00pm SE 12-15 kts 21.5°c 1016.6 hPa 80% 0.0mm
17/04:30pm ESE 11-13 kts 21.6°c 1016.7 hPa 79% 0.0mm
17/04:00pm SE 8-12 kts 22.0°c 1016.7 hPa 76% 0.0mm
17/03:30pm ESE 10-13 kts 22.2°c 1016.5 hPa 74% 0.0mm
17/03:00pm E 9-12 kts 22.7°c 1016.2 hPa 73% 0.0mm
17/02:30pm ESE 7-9 kts 22.7°c 1016.3 hPa 72% 0.0mm
17/02:00pm E 8-10 kts 22.7°c 1016.5 hPa 70% 0.0mm
17/01:30pm ESE 7-8 kts 22.8°c 1016.5 hPa 67% 0.0mm
17/01:00pm ESE 5-6 kts 23.1°c 1016.7 hPa 65% 0.0mm
17/12:30pm SSE 6-9 kts 23.3°c 1017.1 hPa 65% 0.0mm
17/12:00pm SSE 8-11 kts 23.1°c 1017.5 hPa 65% 0.0mm
17/11:30am SSE 9-11 kts 23.4°c 1017.9 hPa 64% 0.0mm
17/11:00am SSE 7-10 kts 23.8°c 1018.2 hPa 63% 0.0mm
17/10:30am SSE 8-11 kts 24.3°c 1018.6 hPa 64% 0.0mm
17/10:00am SSE 8-11 kts 23.5°c 1019.0 hPa 66% 0.0mm
17/09:30am S 5-10 kts 23.1°c 1019.2 hPa 66% 0.0mm
17/09:00am SSW 6-8 kts 22.4°c 1019.3 hPa 67% 0.0mm
17/08:30am SSW 4-5 kts 22.2°c 1019.2 hPa 70% 0.0mm
17/08:00am SSW 3-6 kts 21.6°c 1019.1 hPa 70% 0.0mm
17/07:30am SSW 4-6 kts 21.0°c 1018.9 hPa 73% 0.0mm
17/07:00am WSW 3-4 kts 20.6°c 1018.9 hPa 73% 0.0mm
17/06:30am SW 4-5 kts 20.3°c 1018.5 hPa 74% 0.0mm
17/06:00am SSW 5-7 kts 20.4°c 1018.4 hPa 72% 0.0mm
17/05:30am S 5-7 kts 20.3°c 1018.1 hPa 72% 0.0mm
17/05:00am SSW 5-6 kts 20.0°c 1018.0 hPa 74% 0.0mm
17/04:30am SW 6-8 kts 19.6°c 1018.2 hPa 74% 0.0mm
17/04:00am WSW 4-5 kts 19.6°c 1018.3 hPa 75% 0.0mm
17/03:30am SW 4-7 kts 19.6°c 1018.3 hPa 75% 0.0mm
17/03:00am SSW 5-7 kts 19.5°c 1018.4 hPa 73% 0.0mm
17/02:30am SSW 6-7 kts 19.7°c 1018.6 hPa 72% 0.0mm
17/02:00am SSW 7-10 kts 20.0°c 1018.8 hPa 70% 0.0mm
17/01:30am SSW 6-9 kts 20.0°c 1019.0 hPa 69% 0.0mm
17/01:00am SSW 7-10 kts 20.2°c 1019.1 hPa 68% 0.0mm
17/12:30am S 8-11 kts 20.5°c 1019.3 hPa 67% 0.0mm
17/12:00am S 8-12 kts 20.4°c 1019.4 hPa 68% 0.0mm
Time Wind Speed Temp Pressure Rel. Hum Rain
16/11:30pm S 8-10 kts 20.6°c 1019.7 hPa 66% 0.0mm
16/11:00pm S 10-16 kts 21.2°c 1019.9 hPa 65% 0.0mm
16/10:30pm S 10-15 kts 21.1°c 1020.1 hPa 67% 0.0mm
16/10:00pm SSE 11-16 kts 21.6°c 1020.2 hPa 70% 0.0mm
16/09:30pm S 10-14 kts 21.3°c 1020.3 hPa 67% 0.0mm
16/09:00pm S 11-15 kts 21.5°c 1020.2 hPa 68% 0.0mm
16/08:30pm S 11-19 kts 21.8°c 1019.9 hPa 69% 0.0mm
16/08:00pm SSE 14-19 kts 22.2°c 1019.6 hPa 69% 0.0mm
16/07:30pm SSE 13-20 kts 22.3°c 1019.2 hPa 69% 0.0mm
16/07:00pm SSE 15-21 kts 22.7°c 1018.8 hPa 68% 0.0mm
16/06:30pm SSE 19-24 kts 22.9°c 1018.3 hPa 67% 0.0mm
16/06:00pm SSE 18-23 kts 23.0°c 1017.9 hPa 68% 0.0mm
16/05:30pm SSE 20-26 kts 23.3°c 1017.4 hPa 68% 0.0mm
16/05:00pm SSE 21-26 kts 23.6°c 1017.0 hPa 69% 0.0mm
16/04:30pm SSE 21-28 kts 24.1°c 1016.6 hPa 70% 0.0mm
16/04:00pm SE 22-28 kts 24.4°c 1016.3 hPa 70% 0.0mm
16/03:30pm SE 23-29 kts 24.7°c 1016.0 hPa 68% 0.0mm
16/03:00pm SE 22-27 kts 25.0°c 1015.9 hPa 68% 0.0mm
16/02:30pm SE 20-25 kts 25.4°c 1015.8 hPa 69% 0.0mm
16/02:00pm SE 17-21 kts 25.6°c 1015.8 hPa 67% 0.0mm
16/01:30pm ESE 15-18 kts 25.8°c 1015.7 hPa 61% 0.0mm
16/01:00pm SE 11-13 kts 25.8°c 1016.1 hPa 61% 0.0mm
16/12:30pm SE 11-15 kts 26.0°c 1016.3 hPa 60% 0.0mm
16/12:00pm ESE 7-10 kts 26.6°c 1016.3 hPa 51% 0.0mm
16/11:30am ENE 7 kts 26.8°c 1016.5 hPa 52% 0.0mm
16/11:00am N 5-7 kts 28.0°c 1016.6 hPa 52% 0.0mm
16/10:30am NW 7-10 kts 26.1°c 1016.8 hPa 54% 0.0mm
16/10:00am NW 5-9 kts 26.2°c 1017.1 hPa 57% 0.0mm
16/09:30am NW 6-7 kts 24.4°c 1017.1 hPa 57% 0.0mm
16/09:00am NW 6-9 kts 23.3°c 1016.8 hPa 63% 0.0mm
16/08:30am NNW 5-7 kts 21.9°c 1016.8 hPa 69% 0.0mm
16/08:00am NW 5-7 kts 20.7°c 1016.7 hPa 72% 0.0mm
16/07:30am NW 6-8 kts 19.9°c 1016.5 hPa 76% 0.0mm
16/07:00am NW 5-7 kts 19.7°c 1016.1 hPa 80% 0.0mm
16/06:30am NW 5-6 kts 18.8°c 1015.9 hPa 83% 0.0mm
16/06:00am NW 4-5 kts 18.5°c 1015.7 hPa 83% 0.0mm
16/05:30am NW 4-5 kts 18.4°c 1015.7 hPa 81% 0.0mm
16/05:00am NW 4-5 kts 18.2°c 1015.4 hPa 83% 0.0mm
16/04:30am WNW 3-4 kts 18.4°c 1015.1 hPa 82% 0.0mm
16/04:00am NNW 4-6 kts 18.2°c 1014.9 hPa 86% 0.0mm
16/03:30am CALM 0 kts 17.3°c 1014.9 hPa 84% 0.0mm
16/03:00am W 3-5 kts 17.9°c 1015.0 hPa 85% 0.0mm
16/02:30am WNW 2-4 kts 17.8°c 1014.9 hPa 85% 0.0mm
16/02:00am WNW 3-4 kts 17.9°c 1014.9 hPa 86% 0.0mm
16/01:30am CALM 0 kts 17.3°c 1015.4 hPa 85% 0.0mm
16/01:00am CALM 0 kts 17.5°c 1015.6 hPa 83% 0.0mm
16/12:30am SW 3-4 kts 17.9°c 1015.8 hPa 82% 0.0mm
16/12:00am CALM 0 kts 18.2°c 1015.8 hPa 80% 0.0mm